Location: *
(53.9002°N, 27.5624°E)
Time: 15:12:43
(UTC+00:00)

USA 229 - Pass Details

Date: 12 November 2019
Orbit: 998 x 1215 km, 63.4° (Epoch: 04 December)

Event Time Altitude Azimuth Distance (km) Brightness Sun altitude
Rises 18:29:48 0° 248° (WSW) 3,763 7.1 -36.8°
Reaches altitude 10° 18:32:24 10° 252° (WSW) 2,835 6.4 -37.2°
Enters shadow 18:37:30 48° 287° (WNW) 1,366 4.4 -37.9°
